This demonstration page uses our WeatherBlox Daily Observations layout. Learn more.

39.01783, -85.05884

Hourly Observations for December 3, 2019

Temp ( °F °C ) Dew Point ( °F °C ) Humidity (%) Winds ( mph kmh ) Pressure ( in mb ) Visibility ( mi km ) Precip ( " mm )
12:30 am 00:30 Cloudy 33 0.6 29 -1.7 85 85 W 10 17 30.03 1017 10 16.09344 0.001 0.001
12:52 am 00:52 Cloudy 33 0.6 29 -1.7 85 85 W 10 17 30 1016 10 16.09344 0.001 0.001
1:52 am 01:52 Cloudy 33 0.6 29 -1.7 85 85 W 10 17 30 1016 10 16.09344 0 0
2:52 am 02:52 Cloudy 33 0.6 29 -1.7 85 85 W 9 15 30 1016 10 16.09344 0 0
3:37 am 03:37 Cloudy 32 0 28 -2.2 85 85 W 9 15 30.03 1017 10 16.09344 0 0
3:52 am 03:52 Cloudy 32 0 28 -2.2 85 85 W 12 19 29.97 1015 10 16.09344 0 0
4:52 am 04:52 Cloudy 32 0 28 -2.2 85 85 W 7 11 29.97 1015 10 16.09344 0 0
5:52 am 05:52 Cloudy 32 0 27 -2.8 82 82 WSW 6 9 29.97 1015 10 16.09344 0 0
6:52 am 06:52 Cloudy 32 0 27 -2.8 82 82 WSW 3 6 29.94 1014 10 16.09344 0 0
7:52 am 07:52 Cloudy 32 0 26 -3.3 79 79 SW 9 15 29.97 1015 10 16.09344 0 0
8:52 am 08:52 Cloudy 31 -0.6 26 -3.3 82 82 WSW 6 9 29.94 1014 10 16.09344 0 0
9:52 am 09:52 Cloudy 31 -0.6 26 -3.3 82 82 WSW 9 15 29.94 1014 10 16.09344 0 0
10:52 am 10:52 Cloudy 31 -0.6 26 -3.3 82 82 SW 10 17 29.94 1014 10 16.09344 0 0
11:42 am 11:42 Cloudy 32 0 26 -3.3 79 79 SW 10 17 29.94 1014 10 16.09344 0 0
11:52 am 11:52 Cloudy 32 0 26 -3.3 79 79 WSW 12 19 29.91 1013 10 16.09344 0 0
12:52 pm 12:52 Cloudy 34 1.1 26 -3.3 73 73 SSW 14 22 29.85 1011 10 16.09344 0 0
1:52 pm 13:52 Cloudy 35 1.7 27 -2.8 72 72 WSW 8 13 29.83 1010 10 16.09344 0 0
2:32 pm 14:32 Cloudy 36 2.2 27 -2.8 70 70 SW 8 13 29.83 1010 10 16.09344 0 0
2:52 pm 14:52 Cloudy 37 2.8 26 -3.3 65 65 SSW 10 17 29.8 1009 10 16.09344 0 0
3:52 pm 15:52 Cloudy 37 2.8 26 -3.3 65 65 SW 10 17 29.8 1009 10 16.09344 0 0
4:52 pm 16:52 Cloudy 36 2.2 26 -3.3 67 67 SSW 7 11 29.77 1008 10 16.09344 0 0
5:52 pm 17:52 Cloudy 36 2.2 27 -2.8 70 70 SSW 7 11 29.77 1008 10 16.09344 0 0
6:52 pm 18:52 Cloudy 36 2.2 27 -2.8 70 70 S 7 11 29.77 1008 10 16.09344 0 0
7:52 pm 19:52 Mostly Clear 34 1.1 26 -3.3 73 73 SSW 9 15 29.74 1007 10 16.09344 0 0
8:52 pm 20:52 Clear 34 1.1 27 -2.8 76 76 SW 7 11 29.74 1007 10 16.09344 0 0
9:52 pm 21:52 Clear 34 1.1 27 -2.8 76 76 SSW 8 13 29.71 1006 10 16.09344 0 0
10:52 pm 22:52 Clear 35 1.7 27 -2.8 72 72 SSW 10 17 29.71 1006 10 16.09344 0 0
11:52 pm 23:52 Clear 34 1.1 27 -2.8 76 76 SW 9 15 29.71 1006 10 16.09344 0 0

Powered by AerisWeather